CZ-6A DEB, 54989

Orbit data source: Space-Track

CZ-6A DEB, 54989 is space debris in SSO originally from a launch on Fri, 11 Nov 2022 UTC launched from the Taiyaun Space Center, China (TSC). Debris objects in space refer to the collection of defunct objects orbiting the Earth. Examples of debris include non-operational satellites, rocket bodies, and fragments generated from explosions, collisions, or faulty payload assembly.

Loading next visibility...
Identifier
54989, 2022-151UE
Orbit
SSO
Country
Flag of CNCN / PRC
Related business
Manufacturer
SAST
Mission
Spacecraft
Bus & Motor
Unknown
Mass
Unknown
Launch date (UTC)
2022-11-11 (4 years ago)
Launch vehicle
Unknown
Launch site
Taiyaun Space Center, China (TSC)
Object type
Payload
Rocket body
Debris
Shape & HBR
Unknown shape, 0.2 m
Radar Cross Section
Medium (>0.1 m² and <1 m²)

Expand to show TLE details & history
Last TLE update: 9 hours ago

TLE from 9 hours ago
0 CZ-6A DEB
1 54989U 22151UE  26236.28875010  .00000786  00000-0  34992-3 0  9997
2 54989  98.7558 256.3216 0068423 144.2113 216.3680 14.24427310195035
Epoch: 2026-08-24T06:55Z
TLE epoch observation values (Epoch: 2026-08-24T06:55:48.008Z)
Latitude
0.00002°
Longitude
179.79897°
Altitude
853.07 km
Speed
7.406 km/s
True Right ascension
17h 05m 17s
True Declination
0° 00' 00"
Sunlit
Object was in daylight at epoch
Visualization orbit readout
Latitude
Unknown
Longitude
Unknown
Altitude
Unknown
Speed
Unknown
Apparent Right ascension
Unknown
Apparent Declination
Unknown
Sunlit
N/A
Visualization observer readout
Local Sidereal Time
07:24:47
Azimuth
Unknown
Elevation
Unknown
Doppler factor
Unknown
Orbital elements
Apogee altitude
856.74 km
Perigee altitude
758.407 km
Semi-major axis
7,185.71 km
Eccentricity
0.00684
Inclination
98.7558°
RAAN
256.3216°
Arg. of periapsis
144.2113°
True anomaly
215.90626°
Mean anomaly
216.368°
Eccentric anomaly
216.13681°
Mean motion
3.56319 °/min
Orbital period
101.03 mins
BSTAR
0.00034992
Loading maneuver chart data...
Computing Atmospheric mass density...
Loading historical data...
Loading historical data...
Loading historical data...
Loading historical data...
Loading historical data...
Loading historical data...
Loading historical data...

Documentation

Showing up to 5 results
|